Home   Weather   Okayama   Past weeks

Flag for Japan Past Weather in Okayama, Japan — Yesterday and Last 2 Weeks

Now
45 °F

Broken clouds.


Feels Like: 42 °F
Forecast: 31 / 48 °F
Wind: 5 mph from West

Location: Okayama Airport

Current Time: Feb 24, 2017 at 5:21:46 pm

Latest Report: Feb 24, 2017 at 4:00 pm


Visibility: N/A

Pressure: 30.01 "Hg

Humidity: 39%

Dew Point: 21 °F

Location of OkayamaLocation

Past Weather in Okayama — Graph

°F

Okayama Temperature Yesterday

Maximum temperature yesterday: 54 °F (at 11:00 am)
Minimum temperature yesterday: 41 °F (at 8:00 pm)
Average temperature yesterday: 48 °F

High & Low Weather Summary for the Past Weeks

 TemperatureHumidityPressure
High55 °F (Feb 16, 2:00 pm)100% (Feb 17, 11:39 am)30.42 "Hg (Feb 17, 11:39 am)
Low25 °F (Feb 11, 6:15 am)30% (Feb 18, 4:00 pm)29.56 "Hg (Feb 9, 4:00 pm)
Average40 °F67%30.04 "Hg
* Reported Feb 9 4:00 pm — Feb 24 4:00 pm, Okayama, Weather by CustomWeather, © 2017

Note: Actual official high and low records may vary slightly from our data, if they occured in-between our weather recording intervals... More about our weather records

Advertising

Okayama Weather History for the Previous 24 Hours

Scroll right to see more
 ConditionsComfort  
Time TempWeatherWind HumidityBarometerVisibility
4:00 pm
Fri, Feb 24
45 °FBroken clouds.5 mph39%30.01 "HgN/A
3:00 pm45 °FScattered clouds.6 mph39%30.04 "HgN/A
2:00 pm45 °FPartly sunny.9 mph39%30.04 "HgN/A
1:00 pm43 °FBroken clouds.7 mph46%30.04 "HgN/A
12:00 pm41 °FPartly sunny.6 mph49%30.07 "HgN/A
11:00 am41 °FBroken clouds.7 mph53%30.09 "HgN/A
10:00 am41 °FPartly sunny.6 mph53%30.07 "HgN/A
9:00 am37 °FPartly sunny.7 mph60%30.07 "HgN/A
8:00 am36 °FScattered clouds.3 mph70%30.07 "HgN/A
7:00 am34 °FPassing clouds.6 mph75%30.07 "HgN/A
6:15 am34 °FPassing clouds.6 mph75%30.04 "HgN/A
9:00 pm
Thu, Feb 23
41 °FPartly cloudy.6 mph70%29.89 "HgN/A
8:00 pm41 °FPassing clouds.7 mph76%29.86 "HgN/A
7:00 pm43 °FPassing clouds.7 mph71%29.83 "HgN/A
6:00 pm45 °FPassing clouds.7 mph66%29.80 "HgN/A
5:00 pm46 °FScattered clouds.7 mph62%29.77 "HgN/A
Weather by CustomWeather, © 2017

See weather overviewHow to use our weather pages